Weather History for Cortez, CO

Change the Weather History Date:

Sunday, April 1, 2012

  Actual Average Record
Temperature  
Mean Temperature 52 °F 43 °F  
Max Temperature 72 °F 60 °F 73 °F (2002)
Min Temperature 31 °F 27 °F 15 °F (2005)
Degree Days  
Heating Degree Days 13 22  
Month to date heating degree days 13 22  
Since 1 July heating degree days 5278 5552  
Cooling Degree Days 0 0  
Month to date cooling degree days 0 0  
Year to date cooling degree days 0 0  
Growing Degree Days 2 (Base 50)    
Moisture  
Dew Point 19 °F    
Average Humidity 38    
Maximum Humidity 63    
Minimum Humidity 12    
Precipitation  
Precipitation 0.00 in 0.04 in 0.61 in (2006)
Month to date precipitation 0.00 0.04  
Year to date precipitation 2.21 3.12  
Sea Level Pressure  
Sea Level Pressure 29.63 in    
Wind  
Wind Speed 12 mph (SSW)    
Max Wind Speed 33 mph    
Max Gust Speed 44 mph    
Visibility 10 miles    
Events      
T = Trace of Precipitation, MM = Missing Value Source: NWS Daily Summary

Daily Weather History Graph

Daily Weather History Graph

Search for Another Location

Airport:

Trip Planner

Search our weather history database for the weather conditions in past years. The results will help you decide how hot, cold, wet, or windy it might be!

Date:

Astronomy

Apr. 01, 2012 Rise Set
Actual Time 6:59 AM MDT 7:37 PM MDT
Civil Twilight 6:32 AM MDT 8:03 PM MDT
Nautical Twilight 6:02 AM MDT 8:35 PM MDT
Astronomical Twilight 5:30 AM MDT 9:06 PM MDT
Moon 2:18 PM MDT (4/1) 3:30 AM MDT (4/1)
Length of Visible Light 13h 30m
Length of Day
12h 38m
Waxing Gibbous, 69% of the Moon is Illuminated
Apr 1
Waxing Gibbous
Apr 6
Full
Apr 13
Last Quarter
Apr 21
New
Apr 29
First Quarter

Hourly Weather History & Observations

Time (MDT) Temp. Windchill Dew Point Humidity Pressure Visibility Wind Dir Wind Speed Gust Speed Precip Events Conditions
12:53 AM 52.0 °F - 21.9 °F 31% 29.73 in 10.0 mi SSW 10.4 mph - N/A   Clear
1:53 AM 48.9 °F - 21.0 °F 33% 29.74 in 10.0 mi ENE 6.9 mph - N/A   Clear
2:53 AM 44.1 °F 40.8 °F 21.9 °F 42% 29.75 in 10.0 mi ENE 5.8 mph - N/A   Clear
3:53 AM 39.9 °F 33.9 °F 21.9 °F 49% 29.73 in 10.0 mi ENE 9.2 mph - N/A   Clear
4:53 AM 36.0 °F - 21.9 °F 57% 29.72 in 10.0 mi Calm Calm - N/A   Clear
5:53 AM 35.1 °F - 21.9 °F 59% 29.70 in 10.0 mi Calm Calm - N/A   Clear
6:53 AM 32.0 °F - 21.0 °F 64% 29.72 in 10.0 mi Calm Calm - N/A   Clear
7:53 AM 37.0 °F 34.5 °F 23.0 °F 57% 29.73 in 10.0 mi Variable 3.5 mph - N/A   Clear
8:53 AM 57.0 °F - 23.0 °F 27% 29.67 in 10.0 mi Variable 4.6 mph - N/A   Clear
9:53 AM 63.0 °F - 23.0 °F 22% 29.66 in 10.0 mi SSE 13.8 mph 19.6 mph N/A   Clear
10:53 AM 64.0 °F - 21.0 °F 19% 29.60 in 10.0 mi South 17.3 mph 24.2 mph N/A   Clear
11:53 AM 66.9 °F - 19.9 °F 17% 29.58 in 10.0 mi South 20.7 mph 27.6 mph N/A   Clear
12:53 PM 69.1 °F - 21.0 °F 16% 29.56 in 10.0 mi South 15.0 mph 21.9 mph N/A   Clear
1:53 PM 71.1 °F - 18.0 °F 13% 29.52 in 10.0 mi SSW 21.9 mph 28.8 mph N/A   Clear
2:53 PM 70.0 °F - 15.1 °F 12% 29.51 in 9.0 mi SSW 20.7 mph 36.8 mph N/A   Clear
3:53 PM 71.1 °F - 17.1 °F 13% 29.47 in 10.0 mi SSW 27.6 mph 38.0 mph N/A   Clear
4:53 PM 70.0 °F - 16.0 °F 13% 29.47 in 10.0 mi SSW 28.8 mph 36.8 mph N/A   Clear
5:53 PM 63.0 °F - 17.1 °F 17% 29.52 in 6.0 mi WSW 24.2 mph 31.1 mph N/A   Haze
6:53 PM 57.9 °F - 18.0 °F 21% 29.57 in 10.0 mi WSW 21.9 mph 31.1 mph N/A   Overcast
7:53 PM 53.1 °F - 18.0 °F 25% 29.62 in 10.0 mi SW 11.5 mph 20.7 mph N/A   Mostly Cloudy
8:53 PM 48.9 °F - 19.0 °F 31% 29.61 in 10.0 mi SSW 13.8 mph - N/A   Clear
9:53 PM 44.1 °F 41.5 °F 16.0 °F 32% 29.61 in 10.0 mi West 4.6 mph - N/A   Clear
10:53 PM 34.0 °F - 16.0 °F 48% 29.64 in 10.0 mi Calm Calm - N/A   Partly Cloudy
11:53 PM 39.9 °F - 14.0 °F 35% 29.62 in 10.0 mi Calm Calm - N/A   Clear